Terminal Aerodrome Forecast
Issued by NWS Boston, MA

Home | Current Version | Previous Version | Text Only | Print | Product List | Glossary On
Versions: 1 2 3 4 5 6 7 8 9 10 11 12 13 14 15 16 17 18 19 20 21 22 23 24 25 26 27 28 29 30 31 32 33 34
000
FTUS41 KBOX 161455 AAA
TAFORH
TAF AMD
KORH 161455Z 1615/1712 25005KT P6SM -RA OVC035
     FM161700 25006KT P6SM BKN035
     FM162200 28006KT P6SM SCT050
     FM162300 29005KT P6SM SCT250=

USA.gov is the U.S. government's official web portal to all federal, state and local government web resources and services.